This demonstration page uses our WeatherBlox Daily Observations layout. Learn more.

Left ArrowRight Arrow

Hourly Observations for October 3, 2021

Temp ( °F °C ) Dew Point ( °F °C ) Humidity (%) Winds ( mph kmh ) Pressure ( in mb ) Visibility ( mi km ) Precip ( " mm )
12:53 am 00:53 Partly Cloudy 68 20 66 18.9 93 93 Calm 30.10 1019 10 16 0.00 0.00
1:53 am 01:53 Clear 67 19.4 65 18.3 93 93 Calm 30.09 1019 10 16 0.00 0.00
2:53 am 02:53 Clear 66 18.9 65 18.3 96 96 Calm 30.09 1019 9 14 0.00 0.00
3:53 am 03:53 Mostly Cloudy 67 19.4 65 18.3 93 93 Calm 30.07 1018 10 16 0.00 0.00
4:53 am 04:53 Mostly Cloudy 67 19.4 65 18.3 93 93 Calm 30.06 1018 10 16 0.00 0.00
5:53 am 05:53 Partly Cloudy 67 19.4 65 18.3 93 93 Calm 30.06 1018 10 16 0.00 0.00
6:53 am 06:53 Mostly Cloudy 67 19.4 65 18.3 93 93 Calm 30.06 1018 9 14 0.00 0.00
7:53 am 07:53 Cloudy 69 20.6 64 17.8 84 84 Calm 30.06 1018 10 16 0.00 0.00
8:53 am 08:53 Cloudy 70 21.1 65 18.3 84 84 SW 3 6 30.08 1019 10 16 0.00 0.00
9:53 am 09:53 Mostly Sunny 71 21.7 66 18.9 84 84 SSW 3 6 30.08 1019 10 16 0.00 0.00
10:53 am 10:53 Cloudy 72 22.2 66 18.9 82 82 SSW 7 11 30.08 1019 10 16 0.00 0.00
11:53 am 11:53 Mostly Cloudy 74 23.3 67 19.4 79 79 SSW 6 9 30.08 1019 10 16 0.00 0.00
12:53 pm 12:53 Mostly Cloudy 75 23.9 67 19.4 76 76 SSW 6 9 30.07 1018 10 16 0.00 0.00
1:53 pm 13:53 Mostly Sunny 75 23.9 67 19.4 76 76 SSW 8 13 30.04 1017 10 16 0.00 0.00
2:21 pm 14:21 Mostly Cloudy 76 24.4 68 20 77 77 SSW 6 9 30.01 1016 10 16 0.00 0.00
2:53 pm 14:53 Cloudy 75 23.9 69 20.6 82 82 SW 8 13 30.01 1016 10 16 0.00 0.00
3:09 pm 15:09 Mostly Cloudy 76 24.4 68 20 77 77 SW 7 11 29.99 1016 10 16 0.00 0.00
3:42 pm 15:42 Mostly Cloudy 77 25 68 20 74 74 SSW 8 13 29.98 1015 10 16 0.00 0.00
3:53 pm 15:53 Cloudy 77 25 68 20 74 74 SSW 8 13 29.99 1016 10 16 0.00 0.00
4:14 pm 16:14 Mostly Cloudy 77 25 68 20 74 74 SW 8 13 29.97 1015 10 16 0.00 0.00
4:53 pm 16:53 Partly Cloudy 77 25 67 19.4 71 71 VRB 7 11 29.98 1015 10 16 0.00 0.00
5:53 pm 17:53 Partly Cloudy with Light Rain 76 24.4 67 19.4 74 74 WSW 5 7 29.98 1015 10 16 0.00 0.00
6:03 pm 18:03 Mostly Cloudy with Light Rain 75 23.9 68 20 79 79 W 6 9 29.97 1015 10 16 0.00 0.00
6:15 pm 18:15 Mostly Cloudy with Heavy Rain 73 22.8 69 20.6 87 87 W 6 9 29.98 1015 2 3 0.05 1.27
6:34 pm 18:34 Mostly Cloudy with Heavy Rain 70 21.1 68 20 93 93 WSW 7 11 29.98 1015 1 1 0.17 4.32
6:42 pm 18:42 Mostly Cloudy with Nearby Thunderstorms 70 21.1 66 18.9 87 87 WSW 3 6 29.98 1015 1 2 0.26 6.60
6:48 pm 18:48 Cloudy with Nearby Thunderstorms 70 21 66 19 88 88 SSE 5 7 29.99 1015 6 10 0.32 8.13
8:30 pm 20:30 Cloudy 70 21 68 20 94 94 Calm 30.00 1016 9 14 0.00 0.00
8:35 pm 20:35 Cloudy 70 21 68 20 94 94 SE 3 6 30.00 1016 8 13 0.00 0.00
8:55 pm 20:55 Cloudy 70 21 68 20 94 94 Calm 30.00 1016 8 13 0.00 0.00
9:53 pm 21:53 Cloudy 69 20.6 68 20 96 96 Calm 30.01 1016 10 16 0.00 0.00
10:53 pm 22:53 Cloudy 69 20.6 67 19.4 93 93 W 3 6 30.01 1016 9 14 0.00 0.00
11:53 pm 23:53 Cloudy 69 20.6 68 20 96 96 SSE 5 7 30.00 1016 10 16 0.00 0.00

Powered by AerisWeather